Radiation Dose at Monitoring Post of Fukushima Daini Nuclear Power Station
Date,Time,MP-1(microSv/h),MP-2(microSv/h),MP-3(microSv/h),MP-4(microSv/h),MP-5(microSv/h),MP-6(microSv/h),MP-7(microSv/h),Wind Direction,Wind Velocity(m/s),Rain
2019/04/04,00:00,0.207,0.190,0.315,0.293,0.275,0.155,0.094,west,6.8,No
2019/04/04,00:10,0.206,0.190,0.313,0.293,0.276,0.156,0.095,west,7.0,No
2019/04/04,00:20,0.208,0.190,0.315,0.294,0.276,0.155,0.095,west,7.1,No
2019/04/04,00:30,0.208,0.191,0.313,0.294,0.276,0.156,0.094,west,8.2,No
2019/04/04,00:40,0.208,0.190,0.314,0.293,0.276,0.157,0.095,west,7.9,No
2019/04/04,00:50,0.208,0.191,0.313,0.293,0.277,0.156,0.094,west,8.4,No
2019/04/04,01:00,0.206,0.191,0.313,0.292,0.277,0.156,0.094,west,7.7,No
2019/04/04,01:10,0.207,0.190,0.313,0.294,0.276,0.156,0.095,west-southwest,7.8,No
2019/04/04,01:20,0.207,0.190,0.314,0.294,0.277,0.156,0.095,west-southwest,7.4,No
2019/04/04,01:30,0.209,0.191,0.315,0.294,0.276,0.155,0.095,west-southwest,6.8,No
2019/04/04,01:40,0.206,0.190,0.314,0.293,0.277,0.157,0.094,west-southwest,7.3,No
2019/04/04,01:50,0.207,0.191,0.313,0.294,0.277,0.156,0.094,west,6.4,No
2019/04/04,02:00,0.207,0.191,0.314,0.292,0.276,0.156,0.094,west-southwest,3.9,No
2019/04/04,02:10,0.207,0.190,0.314,0.291,0.277,0.155,0.094,west-southwest,2.6,No
2019/04/04,02:20,0.206,0.190,0.313,0.292,0.276,0.155,0.094,west,2.3,No
2019/04/04,02:30,0.206,0.191,0.315,0.292,0.275,0.157,0.095,west,1.8,No
2019/04/04,02:40,0.206,0.191,0.313,0.293,0.276,0.157,0.095,southwest,1.9,No
2019/04/04,02:50,0.207,0.191,0.313,0.293,0.278,0.156,0.094,west-southwest,2.1,No
2019/04/04,03:00,0.207,0.192,0.314,0.292,0.277,0.156,0.095,southwest,1.5,No
2019/04/04,03:10,0.207,0.190,0.315,0.294,0.276,0.156,0.095,southwest,1.8,No
2019/04/04,03:20,0.207,0.190,0.314,0.293,0.276,0.155,0.095,west-southwest,2.4,No
2019/04/04,03:30,0.207,0.191,0.313,0.293,0.277,0.156,0.094,west,2.4,No
2019/04/04,03:40,0.207,0.192,0.314,0.293,0.277,0.156,0.095,west-southwest,2.2,No
2019/04/04,03:50,0.208,0.191,0.315,0.294,0.276,0.155,0.095,west-southwest,3.7,No
2019/04/04,04:00,0.207,0.191,0.315,0.294,0.277,0.157,0.095,west-southwest,4.2,No
2019/04/04,04:10,0.207,0.192,0.314,0.293,0.277,0.157,0.095,southwest,4.8,No
2019/04/04,04:20,0.207,0.191,0.315,0.293,0.276,0.156,0.095,west-southwest,3.4,No
2019/04/04,04:30,0.207,0.192,0.315,0.294,0.277,0.156,0.095,south-southwest,2.0,No
2019/04/04,04:40,0.208,0.191,0.314,0.293,0.278,0.157,0.094,south-southwest,2.3,No
2019/04/04,04:50,0.206,0.190,0.315,0.293,0.278,0.157,0.095,southwest,2.2,No
2019/04/04,05:00,0.206,0.191,0.314,0.292,0.276,0.157,0.095,south-southwest,2.1,No
2019/04/04,05:10,0.206,0.192,0.314,0.293,0.277,0.157,0.094,south-southwest,4.2,No
2019/04/04,05:20,0.207,0.190,0.314,0.293,0.277,0.156,0.095,southwest,2.7,No
2019/04/04,05:30,0.207,0.191,0.314,0.293,0.278,0.156,0.095,south-southwest,3.0,No
2019/04/04,05:40,0.208,0.191,0.314,0.293,0.276,0.156,0.095,southwest,3.2,No
2019/04/04,05:50,0.206,0.191,0.314,0.293,0.277,0.157,0.095,west-southwest,3.7,No
2019/04/04,06:00,0.206,0.191,0.315,0.293,0.277,0.156,0.094,west-southwest,4.8,No
2019/04/04,06:10,0.206,0.191,0.312,0.292,0.277,0.156,0.095,west-southwest,4.3,No
2019/04/04,06:20,0.207,0.191,0.314,0.292,0.277,0.156,0.094,west-southwest,3.4,No
2019/04/04,06:30,0.207,0.192,0.315,0.294,0.278,0.156,0.095,west-southwest,3.1,No
2019/04/04,06:40,0.207,0.190,0.315,0.292,0.276,0.156,0.094,southwest,3.8,No
2019/04/04,06:50,0.207,0.190,0.314,0.292,0.277,0.156,0.095,southwest,3.9,No
2019/04/04,07:00,0.207,0.191,0.312,0.293,0.276,0.157,0.095,southwest,4.2,No
2019/04/04,07:10,0.207,0.191,0.315,0.293,0.277,0.156,0.095,south-southwest,5.1,No
2019/04/04,07:20,0.207,0.191,0.314,0.292,0.277,0.156,0.094,southwest,4.6,No
2019/04/04,07:30,0.207,0.191,0.313,0.292,0.277,0.156,0.094,southwest,5.6,No
2019/04/04,07:40,0.206,0.191,0.315,0.293,0.277,0.156,0.094,southwest,4.3,No
2019/04/04,07:50,0.206,0.191,0.316,0.291,0.276,0.157,0.094,south-southwest,5.0,No
2019/04/04,08:00,0.206,0.191,0.314,0.293,0.277,0.157,0.095,southwest,5.7,No
2019/04/04,08:10,0.205,0.189,0.315,0.293,0.276,0.157,0.095,west-southwest,8.1,No
2019/04/04,08:20,0.207,0.190,0.314,0.293,0.278,0.156,0.095,southwest,9.3,No
2019/04/04,08:30,0.207,0.189,0.313,0.293,0.276,0.156,0.094,west-southwest,6.7,No
2019/04/04,08:40,0.207,0.191,0.314,0.291,0.277,0.156,0.094,west-southwest,9.6,No
2019/04/04,08:50,0.206,0.191,0.314,0.293,0.279,0.156,0.095,west-southwest,6.6,No
2019/04/04,09:00,0.208,0.190,0.314,0.293,0.278,0.156,0.094,west-southwest,7.4,No
2019/04/04,09:10,0.207,0.192,0.316,0.292,0.279,0.155,0.093,west-southwest,4.5,No
2019/04/04,09:20,0.206,0.190,0.315,0.292,0.276,0.156,0.094,west-southwest,3.5,No
2019/04/04,09:30,0.206,0.191,0.314,0.293,0.277,0.155,0.094,west-southwest,4.6,No
2019/04/04,09:40,0.207,0.190,0.315,0.291,0.274,0.157,0.095,west-southwest,4.5,No
2019/04/04,09:50,0.206,0.192,0.312,0.291,0.277,0.156,0.094,west,2.1,No
2019/04/04,10:00,0.208,0.190,0.314,0.292,0.275,0.156,0.094,west-southwest,3.7,No
2019/04/04,10:10,0.206,0.191,0.314,0.293,0.279,0.156,0.094,west-southwest,2.5,No
2019/04/04,10:20,0.207,0.190,0.313,0.292,0.276,0.157,0.095,west,4.4,No
2019/04/04,10:30,0.207,0.190,0.315,0.294,0.279,0.156,0.094,west,6.4,No
2019/04/04,10:40,0.206,0.191,0.313,0.293,0.277,0.156,0.094,west-northwest,4.9,No
2019/04/04,10:50,0.209,0.191,0.314,0.293,0.279,0.156,0.094,west,5.4,No
2019/04/04,11:00,0.207,0.190,0.314,0.294,0.277,0.157,0.095,west,4.6,No
2019/04/04,11:10,0.206,0.189,0.312,0.293,0.278,0.157,0.095,west-southwest,5.3,No
2019/04/04,11:20,0.205,0.191,0.313,0.294,0.278,0.156,0.094,west,5.6,No
2019/04/04,11:30,0.207,0.190,0.312,0.291,0.278,0.156,0.096,west-southwest,3.8,No
2019/04/04,11:40,0.206,0.189,0.314,0.294,0.278,0.156,0.095,west,4.7,No
2019/04/04,11:50,0.207,0.191,0.313,0.291,0.278,0.156,0.094,west-northwest,7.9,No
2019/04/04,12:00,0.207,0.191,0.314,0.294,0.278,0.156,0.095,west,5.0,No
2019/04/04,12:10,0.207,0.191,0.313,0.293,0.275,0.157,0.095,west-northwest,3.8,No
2019/04/04,12:20,0.206,0.190,0.314,0.294,0.279,0.156,0.095,west-northwest,6.0,No
2019/04/04,12:30,0.206,0.191,0.314,0.294,0.277,0.157,0.094,south-southwest,1.3,No
2019/04/04,12:40,0.207,0.191,0.313,0.293,0.279,0.156,0.094,southeast,3.8,No
2019/04/04,12:50,0.206,0.190,0.314,0.294,0.276,0.156,0.094,south-southeast,2.7,No
2019/04/04,13:00,0.207,0.191,0.313,0.293,0.278,0.157,0.095,southwest,4.9,No
2019/04/04,13:10,0.207,0.190,0.314,0.293,0.278,0.156,0.095,west-southwest,7.6,No
2019/04/04,13:20,0.208,0.192,0.315,0.294,0.278,0.157,0.095,west-southwest,5.7,No
2019/04/04,13:30,0.207,0.191,0.313,0.293,0.279,0.157,0.095,west-northwest,6.2,No
2019/04/04,13:40,0.208,0.191,0.315,0.293,0.276,0.157,0.095,west-northwest,6.3,No
2019/04/04,13:50,0.206,0.190,0.313,0.292,0.279,0.157,0.094,west-northwest,7.7,No
2019/04/04,14:00,0.206,0.190,0.315,0.293,0.275,0.155,0.094,west-northwest,8.3,No
2019/04/04,14:10,0.208,0.191,0.313,0.292,0.278,0.157,0.095,west-northwest,8.4,No
2019/04/04,14:20,0.206,0.191,0.315,0.294,0.277,0.156,0.095,west,12.0,No
2019/04/04,14:30,0.206,0.191,0.312,0.292,0.276,0.157,0.095,west,11.7,No
2019/04/04,14:40,0.207,0.190,0.313,0.292,0.278,0.157,0.095,west-northwest,12.8,No
2019/04/04,14:50,0.205,0.191,0.312,0.293,0.277,0.155,0.095,west-northwest,12.0,No
2019/04/04,15:00,0.208,0.190,0.314,0.291,0.279,0.157,0.094,west-northwest,8.2,No
2019/04/04,15:10,0.207,0.190,0.313,0.293,0.275,0.155,0.095,west,8.4,No
2019/04/04,15:20,0.207,0.191,0.314,0.294,0.277,0.156,0.095,west,9.0,No
2019/04/04,15:30,0.207,0.190,0.314,0.294,0.277,0.158,0.094,west-northwest,5.1,No
2019/04/04,15:40,0.207,0.191,0.315,0.294,0.275,0.156,0.094,west-northwest,6.2,No
2019/04/04,15:50,0.206,0.191,0.316,0.293,0.279,0.157,0.094,west-northwest,7.2,No
2019/04/04,16:00,0.206,0.191,0.315,0.295,0.277,0.156,0.095,west-northwest,7.6,No
2019/04/04,16:10,0.207,0.192,0.315,0.292,0.279,0.157,0.094,west-northwest,8.2,No
2019/04/04,16:20,0.207,0.191,0.315,0.292,0.278,0.157,0.095,west,11.3,No
2019/04/04,16:30,0.208,0.191,0.317,0.294,0.276,0.156,0.094,west-northwest,11.6,No
2019/04/04,16:40,0.208,0.190,0.315,0.293,0.277,0.156,0.094,west-northwest,8.8,No
2019/04/04,16:50,0.207,0.191,0.315,0.295,0.276,0.156,0.094,west-northwest,7.9,No
2019/04/04,17:00,0.208,0.192,0.314,0.292,0.277,0.156,0.095,northwest,4.5,No
2019/04/04,17:10,0.208,0.192,0.315,0.293,0.279,0.157,0.095,west-northwest,5.3,No
2019/04/04,17:20,0.208,0.191,0.315,0.294,0.278,0.157,0.094,west-northwest,5.0,No
2019/04/04,17:30,0.208,0.192,0.316,0.294,0.280,0.156,0.095,west-northwest,6.6,No
2019/04/04,17:40,0.207,0.192,0.315,0.293,0.278,0.157,0.094,northwest,6.5,No
2019/04/04,17:50,0.208,0.191,0.314,0.296,0.280,0.158,0.095,west-northwest,6.5,No
2019/04/04,18:00,0.207,0.191,0.315,0.294,0.279,0.157,0.095,west,4.0,No
2019/04/04,18:10,0.206,0.191,0.313,0.294,0.278,0.157,0.094,south-southwest,2.9,No
2019/04/04,18:20,0.208,0.192,0.316,0.296,0.281,0.157,0.095,south,4.9,No
2019/04/04,18:30,0.208,0.193,0.315,0.293,0.278,0.157,0.095,south,6.3,No
2019/04/04,18:40,0.207,0.192,0.315,0.294,0.278,0.157,0.095,south,6.9,No
2019/04/04,18:50,0.208,0.191,0.314,0.294,0.278,0.156,0.095,south,7.4,No
2019/04/04,19:00,0.206,0.192,0.316,0.294,0.279,0.157,0.095,south,7.3,No
2019/04/04,19:10,0.207,0.191,0.314,0.293,0.277,0.156,0.095,south,7.9,No
2019/04/04,19:20,0.207,0.191,0.316,0.294,0.278,0.157,0.095,south,6.2,No
2019/04/04,19:30,0.207,0.191,0.315,0.294,0.277,0.156,0.095,south,6.7,No
2019/04/04,19:40,0.207,0.192,0.312,0.294,0.277,0.157,0.094,south,5.7,No
2019/04/04,19:50,0.208,0.192,0.314,0.293,0.278,0.157,0.095,south,6.8,No
2019/04/04,20:00,0.207,0.192,0.316,0.294,0.278,0.157,0.095,south,6.2,No
2019/04/04,20:10,0.208,0.192,0.315,0.294,0.277,0.157,0.095,south,6.7,No
2019/04/04,20:20,0.207,0.191,0.315,0.296,0.277,0.156,0.095,south,6.2,No
2019/04/04,20:30,0.207,0.191,0.314,0.294,0.279,0.156,0.095,south,5.1,No
2019/04/04,20:40,0.207,0.192,0.314,0.294,0.277,0.157,0.095,south,4.8,No
2019/04/04,20:50,0.208,0.192,0.316,0.294,0.277,0.157,0.096,south,4.9,No
2019/04/04,21:00,0.209,0.191,0.315,0.295,0.278,0.157,0.095,south-southwest,4.8,No
2019/04/04,21:10,0.208,0.190,0.315,0.295,0.278,0.157,0.095,south,4.8,No
2019/04/04,21:20,0.207,0.191,0.314,0.292,0.276,0.157,0.095,south,5.4,No
2019/04/04,21:30,0.208,0.193,0.315,0.296,0.276,0.158,0.095,south,4.7,No
2019/04/04,21:40,0.208,0.192,0.316,0.294,0.277,0.157,0.095,south,4.8,No
2019/04/04,21:50,0.208,0.192,0.315,0.294,0.277,0.156,0.096,south,5.1,No
2019/04/04,22:00,0.208,0.193,0.315,0.295,0.278,0.157,0.095,south,5.9,No
2019/04/04,22:10,0.208,0.191,0.315,0.294,0.277,0.158,0.094,south,7.1,No
2019/04/04,22:20,0.208,0.191,0.314,0.295,0.277,0.157,0.094,south,8.4,No
2019/04/04,22:30,0.208,0.192,0.314,0.295,0.278,0.158,0.096,south,6.7,No
2019/04/04,22:40,0.207,0.191,0.313,0.295,0.278,0.157,0.095,south-southwest,6.4,No
2019/04/04,22:50,0.207,0.191,0.316,0.295,0.278,0.158,0.095,south-southwest,5.1,No
2019/04/04,23:00,0.207,0.192,0.313,0.294,0.277,0.157,0.095,south-southwest,5.1,No
2019/04/04,23:10,0.206,0.192,0.315,0.295,0.276,0.157,0.095,southwest,6.5,No
2019/04/04,23:20,0.208,0.192,0.316,0.295,0.278,0.157,0.095,southwest,7.7,No
2019/04/04,23:30,0.207,0.192,0.314,0.294,0.277,0.156,0.095,southwest,7.1,No
2019/04/04,23:40,0.207,0.191,0.314,0.293,0.277,0.157,0.096,southwest,6.6,No
2019/04/04,23:50,0.208,0.192,0.315,0.295,0.278,0.156,0.095,southwest,6.2,No
